[[{"header":{"parameterUnit":"m.s-1","parameterCategory":1,"la1":30.2991,"la2":30.254,"lo1":-89.0895,"lo2":-89.0444,"dy":0.0017,"dx":0.0017,"nx":28,"ny":28,"refTime":"2025-04-21T09:00:00:Z","depth":0,"parameterNumber":2,"parameterNumberName":"U-component_of_WINDS"},"data":[0,0,0,0,0,0,0,0,0,0,0,0,0,0,0,0,0,0,0,0,0,0,0,0,0,0,0,0,0,0,0,0,0,0,0,0,0,0,0,0,0,0,0,0,0,0,0,0,0,0,0,0,0,0,0,0,0,0,-0.8258,-0.8258,0,-0.826,-0.826,-0.826,-0.8246,-0.8246,-0.8246,-0.8245,-0.8249,-0.8249,-0.825,0,0,0,0,0,0,0,0,0,0,0,0,0,-0.8241,-0.8241,-0.8258,-0.8258,-0.8258,-0.826,-0.826,-0.826,-0.8246,-0.8246,-0.8245,-0.8245,-0.8249,-0.8249,-0.825,0,0,0,0,0,0,0,0,0,0,0,0,0,-0.8246,-0.8241,-0.8258,-0.8251,-0.825,-0.826,-0.826,-0.826,-0.8247,-0.8246,-0.8245,-0.8245,-0.8249,-0.8249,-0.825,-0.8267,0,0,-0.8252,-0.8252,0,0,0,0,0,0,0,0,-0.8246,-0.8247,-0.8252,-0.8251,-0.8251,-0.8252,-0.8256,-0.8263,-0.8247,-0.8248,-0.8245,-0.8244,-0.8251,-0.8251,-0.8253,-0.8267,-0.8267,-0.8252,-0.8253,-0.8253,-0.8253,0,0,0,0,0,0,0,-0.8246,-0.8247,-0.8259,-0.8252,-0.8251,-0.8248,-0.8248,-0.8257,-0.8253,-0.8248,-0.8247,-0.8247,-0.825,-0.8252,-0.8253,-0.8267,-0.8252,-0.8253,-0.8253,-0.8254,-0.8295,-0.8295,0,0,0,0,0,0,-0.8246,-0.8246,-0.8259,-0.8259,-0.8247,-0.8249,-0.8249,-0.8253,-0.8253,-0.8252,-0.8248,-0.8247,-0.8251,-0.8252,-0.8253,-0.8273,-0.8253,-0.8254,-0.8254,-0.8294,-0.8295,-0.8295,0,0,0,0,0,0,-0.8246,-0.8247,-0.8258,-0.8252,-0.8253,-0.825,-0.8254,-0.8253,-0.8255,-0.8253,-0.8252,-0.8251,-0.8251,-0.8252,-0.8263,-0.8273,-0.8254,-0.8255,-0.8293,-0.8294,-0.8295,-0.8312,0,0,0,0,0,0,-0.8245,-0.8247,-0.8253,-0.8253,-0.8254,-0.8269,-0.8254,-0.8253,-0.8256,-0.8255,-0.8255,-0.8255,-0.8251,-0.8262,-0.8264,-0.8273,-0.8255,-0.8292,-0.8294,-0.8295,-0.8311,-0.8314,-0.8316,0,0,0,0,0,-0.8245,-0.8258,-0.8254,-0.8255,-0.8262,-0.8269,-0.827,-0.8265,-0.8257,-0.8263,-0.8262,-0.8255,-0.8271,-0.8264,-0.8265,-0.8275,-0.8292,-0.8293,-0.8295,-0.831,-0.8313,-0.8316,0,0,0,0,0,0,-0.8261,-0.8258,-0.8253,-0.8267,-0.8268,-0.8267,-0.8275,-0.8269,-0.8273,-0.8271,-0.8265,-0.8265,-0.8277,-0.8277,-0.8269,-0.8291,-0.828,-0.8282,-0.8291,-0.8294,-0.8297,-0.8297,-0.8256,0,0,0,0,0,-0.8266,-0.8272,-0.8269,-0.8282,-0.8283,-0.8278,-0.8282,-0.8277,-0.8279,-0.8279,-0.8279,-0.8281,-0.8286,-0.829,-0.8295,-0.831,-0.831,-0.8318,-0.8321,-0.8323,-0.8325,-0.8333,-0.8336,-0.83,-0.83,-0.83,0,0,-0.8276,-0.8276,-0.828,-0.8285,-0.8285,-0.8292,-0.8279,-0.8287,-0.8292,-0.8281,-0.8291,-0.8291,-0.8292,-0.8306,-0.8312,-0.8306,-0.8335,-0.8325,-0.8326,-0.8327,-0.8335,-0.8338,-0.8341,-0.8301,-0.8301,-0.8301,0,0,-0.8299,-0.8299,-0.831,-0.831,-0.8311,-0.8308,-0.8311,-0.831,-0.8309,-0.832,-0.8312,-0.8317,-0.8327,-0.8329,-0.8331,-0.8354,-0.8348,-0.8356,-0.837,-0.8378,-0.8381,-0.8383,-0.8392,-0.8395,-0.8357,-0.8357,-0.8357,0,-0.8313,-0.8322,-0.8316,-0.8324,-0.8326,-0.8316,-0.8327,-0.8328,-0.833,-0.8332,-0.8326,-0.8338,-0.8338,-0.8352,-0.8358,-0.8359,-0.8362,-0.8356,-0.8381,-0.8383,-0.8385,-0.8394,-0.8397,-0.8358,-0.8358,-0.8358,-0.8358,0,-0.8339,-0.8346,-0.8354,-0.8356,-0.8359,-0.8369,-0.8364,-0.8368,-0.8363,-0.8361,-0.8372,-0.8372,-0.8377,-0.8379,-0.8375,-0.8392,-0.8389,-0.8382,-0.8371,-0.839,-0.8397,-0.8401,-0.836,-0.8359,-0.8359,-0.8359,0,0,-0.8373,-0.8371,-0.8374,-0.8375,-0.8375,-0.8381,-0.8389,-0.8394,-0.8397,-0.8399,-0.8407,-0.8415,-0.8408,-0.8411,-0.8406,-0.8413,-0.8432,-0.8405,-0.8405,-0.8411,-0.8452,-0.8457,-0.8461,-0.8428,-0.8428,-0.8429,-0.8452,0,-0.8396,-0.8411,-0.8405,-0.842,-0.8426,-0.8416,-0.8424,-0.8425,-0.8423,-0.8428,-0.8426,-0.8432,-0.8422,-0.8424,-0.843,-0.8428,-0.844,-0.8427,-0.8435,-0.8435,-0.8435,-0.8465,-0.8471,-0.8493,-0.8454,-0.8455,-0.8455,0,-0.8425,-0.8428,-0.8444,-0.8442,-0.8445,-0.8452,-0.8455,-0.846,-0.8461,-0.8459,-0.8461,-0.8455,-0.8464,-0.8452,-0.8464,-0.8455,-0.8458,-0.8458,-0.8458,-0.846,-0.8447,-0.8468,-0.85,-0.8504,-0.846,-0.8459,-0.8459,0,-0.8449,-0.8456,-0.8467,-0.8468,-0.8467,-0.8472,-0.8471,-0.8472,-0.8474,-0.8477,-0.8479,-0.8483,-0.8486,-0.8489,-0.8484,-0.8476,-0.8497,-0.8485,-0.8496,-0.8497,-0.8502,-0.8502,-0.8536,-0.8503,-0.8503,-0.8503,-0.8503,0,-0.8475,-0.8486,-0.8478,-0.8484,-0.8495,-0.8488,-0.85,-0.8498,-0.8498,-0.8505,-0.8496,-0.8502,-0.8495,-0.8501,-0.8497,-0.8508,-0.8509,-0.8508,-0.8507,-0.8509,-0.8509,-0.8511,-0.851,-0.8504,-0.8503,-0.8503,-0.8503,0,-0.8505,-0.8499,-0.851,-0.8508,-0.8507,-0.8516,-0.8514,-0.852,-0.8517,-0.8525,-0.8526,-0.8522,-0.8528,-0.8523,-0.8529,-0.8527,-0.8541,-0.8538,-0.8541,-0.854,-0.8552,-0.8551,-0.8589,-0.8594,-0.8557,-0.8557,-0.8558,0,-0.8522,-0.853,-0.8528,-0.8531,-0.8531,-0.8537,-0.854,-0.8533,-0.8536,-0.8537,-0.8543,-0.8548,-0.8552,-0.8562,-0.856,-0.8564,-0.8561,-0.8574,-0.8562,-0.8564,-0.8562,-0.8562,-0.8563,-0.8577,-0.8578,-0.8578,-0.8578,0,-0.8555,-0.8552,-0.8556,-0.8559,-0.8562,-0.8565,-0.8566,-0.8569,-0.8562,-0.8566,-0.8572,-0.8575,-0.8581,-0.8586,-0.859,-0.859,-0.8583,-0.8582,-0.8585,-0.8588,-0.8589,-0.8589,-0.8548,-0.8581,-0.8581,-0.8581,-0.8581,-0.858,-0.8579,-0.8586,-0.8585,-0.859,-0.859,-0.8592,-0.8597,-0.8594,-0.8599,-0.8603,-0.8598,-0.8606,-0.8606,-0.861,-0.8611,-0.8616,-0.8611,-0.8615,-0.8616,-0.8618,-0.8619,-0.8588,-0.8617,-0.8617,-0.8616,-0.8616,-0.8616,0,-0.8612,-0.8611,-0.8615,-0.8617,-0.8621,-0.8613,-0.8615,-0.8618,-0.8625,-0.8625,-0.8629,-0.8636,-0.864,-0.8638,-0.8642,-0.8647,-0.8645,-0.8649,-0.8649,-0.8649,-0.8624,-0.8621,-0.8651,-0.8651,-0.8651,-0.8651,-0.8651,-0.8651,-0.8629,-0.864,-0.8636,-0.8646,-0.8645,-0.8652,-0.8653,-0.8655,-0.8655,-0.8663,-0.8667,-0.8665,-0.8664,-0.8668,-0.8672,-0.8671,-0.8674,-0.868,-0.8678,-0.8654,-0.8651,-0.8648,-0.8645,-0.868,-0.868,-0.8703,-0.8703,-0.8703]},{"header":{"parameterUnit":"m.s-1","parameterCategory":1,"la1":30.2991,"la2":30.254,"lo1":-89.0895,"lo2":-89.0444,"dy":0.0017,"dx":0.0017,"nx":28,"ny":28,"refTime":"2025-04-21T09:00:00:Z","depth":0,"parameterNumber":3,"parameterNumberName":"V-component_of_WINDS"},"data":[0,0,0,0,0,0,0,0,0,0,0,0,0,0,0,0,0,0,0,0,0,0,0,0,0,0,0,0,0,0,0,0,0,0,0,0,0,0,0,0,0,0,0,0,0,0,0,0,0,0,0,0,0,0,0,0,0,0,2.1026,2.1027,0,2.1105,2.1106,2.1106,2.1135,2.1135,2.1135,2.1135,2.1211,2.1213,2.1216,0,0,0,0,0,0,0,0,0,0,0,0,0,2.0897,2.0899,2.1026,2.1027,2.1028,2.1104,2.1106,2.1107,2.1135,2.1135,2.1135,2.1135,2.121,2.1213,2.1216,0,0,0,0,0,0,0,0,0,0,0,0,0,2.0962,2.0899,2.1025,2.1051,2.1055,2.1104,2.1106,2.1107,2.1136,2.1135,2.1135,2.1134,2.121,2.1213,2.1216,2.1245,0,0,2.1227,2.1228,0,0,0,0,0,0,0,0,2.0958,2.0966,2.1047,2.105,2.1053,2.111,2.1088,2.1153,2.1136,2.1105,2.1135,2.1134,2.1178,2.1184,2.1199,2.1248,2.1252,2.1227,2.1229,2.123,2.1231,0,0,0,0,0,0,0,2.0953,2.0963,2.1057,2.1048,2.1052,2.1058,2.1067,2.1101,2.1142,2.1107,2.111,2.1119,2.1179,2.1196,2.1201,2.1253,2.1227,2.123,2.1232,2.1233,2.133,2.1331,0,0,0,0,0,0,2.0945,2.0959,2.1054,2.1059,2.1004,2.1061,2.1071,2.1092,2.1142,2.1149,2.1119,2.112,2.119,2.1197,2.1204,2.1241,2.123,2.1234,2.1236,2.133,2.133,2.1331,0,0,0,0,0,0,2.0942,2.0953,2.1051,2.101,2.1023,2.1063,2.1087,2.1094,2.111,2.1151,2.1158,2.1128,2.119,2.1199,2.1235,2.1244,2.1235,2.1238,2.1329,2.133,2.133,2.1315,0,0,0,0,0,0,2.0938,2.0952,2.0964,2.101,2.1025,2.1082,2.1088,2.1096,2.1117,2.1118,2.1161,2.1168,2.119,2.123,2.1238,2.1249,2.1241,2.1328,2.1329,2.133,2.1315,2.1315,2.1316,0,0,0,0,0,2.0934,2.0955,2.0964,2.0976,2.1041,2.1082,2.1091,2.1117,2.1117,2.1129,2.1155,2.1167,2.1242,2.1233,2.1243,2.1255,2.1328,2.1329,2.133,2.1315,2.1315,2.1316,0,0,0,0,0,0,2.0908,2.0962,2.0972,2.101,2.1042,2.1087,2.1103,2.1116,2.1147,2.1148,2.1178,2.1187,2.1221,2.1241,2.123,2.1285,2.1285,2.1289,2.1271,2.1271,2.1272,2.1266,2.1244,0,0,0,0,0,2.0907,2.0937,2.0982,2.1011,2.1026,2.1062,2.1081,2.1099,2.1132,2.1145,2.1173,2.1204,2.1235,2.1254,2.1284,2.1318,2.1328,2.1331,2.1331,2.1332,2.1334,2.1354,2.1356,2.1335,2.1335,2.1335,0,0,2.0904,2.0938,2.0954,2.1007,2.1033,2.1063,2.1073,2.1103,2.1126,2.1149,2.1185,2.1207,2.1243,2.1279,2.1296,2.1297,2.1342,2.1333,2.1333,2.1335,2.1355,2.1357,2.1359,2.1335,2.1335,2.1335,0,0,2.0915,2.0943,2.0971,2.0998,2.1039,2.1062,2.1069,2.1113,2.1129,2.1166,2.1184,2.1211,2.1262,2.1288,2.1307,2.1329,2.1341,2.1338,2.134,2.1359,2.136,2.1362,2.137,2.1373,2.134,2.134,2.134,0,2.0906,2.0953,2.0983,2.1014,2.1036,2.106,2.1088,2.1112,2.116,2.1174,2.1175,2.1242,2.1268,2.131,2.1315,2.133,2.1338,2.1333,2.1358,2.136,2.1362,2.137,2.1373,2.134,2.134,2.134,2.134,0,2.0941,2.0973,2.099,2.1038,2.1062,2.1091,2.1124,2.1145,2.1161,2.1184,2.1221,2.1254,2.1292,2.1303,2.1318,2.1347,2.1347,2.1352,2.1353,2.1363,2.1371,2.1374,2.1339,2.1339,2.1339,2.1339,0,0,2.0937,2.1002,2.1007,2.103,2.1077,2.1102,2.1132,2.117,2.1187,2.122,2.1245,2.1289,2.1296,2.1318,2.1336,2.1353,2.1369,2.1357,2.1358,2.1358,2.1403,2.1398,2.1401,2.1377,2.1378,2.1378,2.14,0,2.0954,2.101,2.1038,2.1082,2.1112,2.1136,2.1162,2.1193,2.1216,2.1244,2.1268,2.1299,2.1305,2.1319,2.1337,2.1363,2.1378,2.1362,2.14,2.1401,2.1391,2.1406,2.1401,2.142,2.1403,2.1404,2.1404,0,2.0982,2.1016,2.1063,2.1108,2.1121,2.1144,2.1182,2.1209,2.1245,2.126,2.1286,2.1304,2.1335,2.1334,2.1378,2.1367,2.1384,2.1399,2.1401,2.1405,2.1403,2.141,2.1426,2.1429,2.1409,2.1409,2.1409,0,2.0974,2.1032,2.1068,2.1086,2.1139,2.1155,2.1177,2.1213,2.1234,2.1267,2.1281,2.1317,2.1336,2.1363,2.139,2.1386,2.1431,2.1432,2.1444,2.1443,2.1452,2.1451,2.1471,2.1463,2.1463,2.1463,2.1463,0,2.0991,2.1019,2.1065,2.1087,2.1119,2.1151,2.1181,2.1205,2.1237,2.1263,2.1286,2.131,2.1344,2.1372,2.1393,2.1427,2.1435,2.1448,2.1453,2.1446,2.1444,2.1458,2.1457,2.1464,2.1464,2.1463,2.1463,0,2.0988,2.102,2.1061,2.1109,2.1121,2.1143,2.1183,2.1204,2.1229,2.1262,2.1272,2.1309,2.1344,2.1374,2.1419,2.1433,2.1467,2.1473,2.1456,2.1458,2.1469,2.1468,2.1498,2.1504,2.1492,2.1492,2.1492,0,2.0996,2.1019,2.1069,2.1089,2.1112,2.1144,2.1167,2.1198,2.1221,2.1264,2.1281,2.1317,2.1348,2.1402,2.1433,2.1467,2.1475,2.1483,2.148,2.1472,2.1475,2.1474,2.1476,2.1483,2.1483,2.1483,2.1483,0,2.1008,2.1023,2.1056,2.1095,2.1122,2.1153,2.1185,2.12,2.1238,2.1262,2.1299,2.1323,2.137,2.1406,2.1444,2.1466,2.1481,2.1484,2.1489,2.1481,2.147,2.1477,2.1456,2.1483,2.1483,2.1483,2.1483,2.1483,2.1011,2.1032,2.1072,2.1107,2.1135,2.1165,2.1189,2.1217,2.1248,2.129,2.1306,2.1344,2.1379,2.1433,2.1455,2.1484,2.1486,2.1493,2.1494,2.1496,2.1495,2.1466,2.1491,2.1491,2.1491,2.1491,2.1491,0,2.1024,2.1051,2.1084,2.1129,2.1157,2.117,2.1207,2.1229,2.1262,2.1295,2.1325,2.1367,2.1403,2.1437,2.1474,2.149,2.1498,2.1499,2.1498,2.1503,2.149,2.1483,2.1492,2.1492,2.1492,2.1492,2.1492,2.1492,2.1034,2.1071,2.1091,2.1142,2.1168,2.1206,2.1226,2.1253,2.128,2.1327,2.1357,2.1379,2.1413,2.1452,2.1485,2.1494,2.1506,2.1505,2.1516,2.1504,2.1503,2.1503,2.1496,2.1508,2.1508,2.1526,2.1527,2.1527]}]]